QPF
0.01 0.01 0.03 0.02 0.01 0.01 0.01 0.00 0.00 0.01 0.00 0.00 0.00 0.00 0.00 0.00 0.00 0.00 0.00 0.01 0.01 0.01 0.01 0.01 0.02 0.03 0.05 0.06 0.06 0.06 0.05 0.05 0.06 0.06 0.08 0.08 0.08 0.08 0.07 0.05 0.03 0.03 0.05
0.00 0.01 0.03 0.02 0.01 0.01 0.01 0.00 0.00 0.00 0.00 0.00 0.00 0.00 0.00 0.00 0.00 0.00 0.00 0.01 0.01 0.01 0.01 0.01 0.01 0.02 0.03 0.05 0.06 0.05 0.04 0.04 0.06 0.10 0.12 0.12 0.12 0.08 0.05 0.03 0.03 0.05 0.06
0.00 0.00 0.01 0.01 0.01 0.01 0.00 0.00 0.00 0.00 0.00 0.00 0.00 0.00 0.00 0.00 0.00 0.00 0.01 0.01 0.01 0.01 0.01 0.01 0.02 0.01 0.02 0.04 0.05 0.05 0.05 0.06 0.09 0.12 0.11 0.07 0.08 0.08 0.05 0.03 0.04 0.05 0.06
0.00 0.00 0.01 0.01 0.01 0.00 0.00 0.00 0.00 0.00 0.00 0.00 0.00 0.00 0.00 0.00 0.00 0.00 0.01 0.01 0.01 0.01 0.01 0.01 0.03 0.02 0.02 0.04 0.04 0.05 0.07 0.08 0.10 0.08 0.03 0.02 0.04 0.08 0.06 0.04 0.03 0.05 0.04
0.00 0.00 0.01 0.00 0.00 0.00 0.00 0.00 0.00 0.00 0.00 0.00 0.00 0.00 0.00 0.00 0.00 0.01 0.01 0.01 0.01 0.01 0.01 0.01 0.02 0.02 0.03 0.03 0.04 0.06 0.07 0.08 0.08 0.04 0.01 0.02 0.03 0.06 0.05 0.03 0.03 0.04 0.03
0.00 0.00 0.01 0.01 0.00 0.00 0.00 0.00 0.00 0.00 0.00 0.00 0.00 0.01 0.01 0.01 0.01 0.01 0.01 0.01 0.01 0.01 0.01 0.01 0.02 0.02 0.03 0.04 0.04 0.07 0.08 0.07 0.04 0.01 0.01 0.02 0.02 0.05 0.04 0.02 0.03 0.04 0.02
0.01 0.01 0.01 0.01 0.01 0.00 0.00 0.00 0.00 0.01 0.00 0.00 0.01 0.01 0.01 0.01 0.01 0.01 0.01 0.01 0.01 0.01 0.01 0.02 0.02 0.02 0.02 0.04 0.06 0.09 0.12 0.08 0.01 0.01 0.00 0.01 0.02 0.05 0.05 0.03 0.03 0.04 0.02
0.02 0.02 0.03 0.02 0.01 0.01 0.00 0.01 0.01 0.01 0.00 0.01 0.01 0.01 0.01 0.01 0.01 0.01 0.01 0.01 0.01 0.01 0.01 0.01 0.01 0.01 0.02 0.03 0.05 0.07 0.11 0.06 0.01 0.00 0.00 0.01 0.03 0.05 0.06 0.05 0.03 0.04 0.03
0.06 0.06 0.04 0.03 0.02 0.01 0.01 0.01 0.01 0.01 0.01 0.01 0.01 0.01 0.01 0.01 0.01 0.01 0.00 0.00 0.01 0.01 0.01 0.01 0.01 0.01 0.02 0.04 0.06 0.08 0.11 0.09 0.02 0.00 0.00 0.01 0.03 0.04 0.05 0.04 0.03 0.03 0.04
0.12 0.12 0.07 0.03 0.02 0.02 0.01 0.01 0.01 0.01 0.01 0.01 0.01 0.01 0.01 0.01 0.01 0.01 0.01 0.01 0.01 0.01 0.02 0.01 0.01 0.01 0.03 0.05 0.07 0.09 0.12 0.09 0.01 0.01 0.00 0.01 0.02 0.04 0.05 0.05 0.03 0.02 0.03
0.09 0.12 0.11 0.08 0.04 0.02 0.01 0.01 0.01 0.01 0.01 0.01 0.01 0.01 0.02 0.01 0.01 0.01 0.01 0.01 0.01 0.02 0.02 0.02 0.02 0.02 0.02 0.04 0.06 0.09 0.07 0.03 0.01 0.00 0.00 0.01 0.03 0.05 0.04 0.04 0.04 0.02 0.03
0.09 0.09 0.09 0.10 0.07 0.05 0.02 0.02 0.01 0.01 0.01 0.01 0.01 0.01 0.01 0.01 0.01 0.01 0.01 0.03 0.02 0.02 0.02 0.03 0.03 0.02 0.02 0.01 0.04 0.06 0.03 0.02 0.01 0.00 0.01 0.02 0.03 0.05 0.06 0.05 0.04 0.02 0.03
0.11 0.08 0.08 0.10 0.10 0.09 0.06 0.03 0.01 0.01 0.00 0.00 0.00 0.00 0.00 0.00 0.00 0.00 0.01 0.02 0.02 0.02 0.01 0.01 0.02 0.01 0.01 0.01 0.02 0.03 0.03 0.02 0.02 0.01 0.01 0.04 0.04 0.05 0.05 0.04 0.05 0.03 0.04
0.12 0.06 0.06 0.07 0.09 0.09 0.08 0.05 0.02 0.00 0.00 0.00 0.00 0.00 0.00 0.00 0.00 0.00 0.00 0.00 0.01 0.00 0.00 0.01 0.01 0.01 0.01 0.01 0.01 0.02 0.04 0.04 0.03 0.01 0.02 0.04 0.04 0.05 0.04 0.04 0.04 0.04 0.04
0.09 0.05 0.06 0.09 0.08 0.07 0.08 0.08 0.05 0.02 0.00 0.00 0.00 0.00 0.00 0.00 0.01 0.01 0.00 0.00 0.00 0.00 0.01 0.01 0.02 0.03 0.03 0.02 0.02 0.02 0.03 0.04 0.02 0.01 0.02 0.05 0.04 0.05 0.05 0.04 0.03 0.03 0.03
0.13 0.11 0.10 0.11 0.12 0.10 0.07 0.06 0.04 0.01 0.00 0.00 0.00 0.00 0.00 0.00 0.01 0.01 0.01 0.01 0.01 0.01 0.01 0.02 0.02 0.02 0.04 0.03 0.03 0.03 0.03 0.04 0.02 0.01 0.02 0.04 0.05 0.04 0.05 0.06 0.04 0.03 0.03
0.20 0.23 0.18 0.14 0.14 0.12 0.10 0.07 0.04 0.03 0.02 0.01 0.01 0.00 0.01 0.01 0.01 0.01 0.01 0.01 0.01 0.01 0.01 0.03 0.03 0.02 0.03 0.04 0.03 0.03 0.04 0.04 0.03 0.02 0.02 0.03 0.04 0.05 0.05 0.07 0.09 0.06 0.05
0.21 0.23 0.19 0.15 0.16 0.15 0.13 0.09 0.07 0.04 0.03 0.02 0.02 0.01 0.01 0.01 0.01 0.01 0.01 0.01 0.01 0.01 0.01 0.03 0.03 0.02 0.02 0.04 0.04 0.04 0.05 0.04 0.03 0.03 0.02 0.02 0.03 0.04 0.06 0.08 0.10 0.10 0.10
0.21 0.23 0.22 0.22 0.19 0.21 0.19 0.13 0.09 0.07 0.05 0.05 0.03 0.02 0.02 0.02 0.02 0.01 0.01 0.01 0.02 0.01 0.02 0.03 0.04 0.03 0.03 0.03 0.03 0.03 0.04 0.05 0.04 0.03 0.03 0.03 0.02 0.02 0.03 0.06 0.09 0.09 0.09
0.18 0.22 0.26 0.23 0.26 0.34 0.28 0.18 0.13 0.11 0.09 0.07 0.05 0.03 0.02 0.02 0.02 0.03 0.02 0.02 0.01 0.01 0.01 0.01 0.02 0.03 0.02 0.02 0.03 0.03 0.03 0.04 0.04 0.04 0.04 0.02 0.02 0.02 0.02 0.02 0.04 0.05 0.09
0.18 0.27 0.36 0.37 0.34 0.33 0.28 0.21 0.14 0.10 0.11 0.10 0.06 0.04 0.04 0.03 0.03 0.03 0.03 0.02 0.01 0.01 0.01 0.01 0.01 0.01 0.01 0.01 0.02 0.02 0.02 0.02 0.03 0.02 0.04 0.04 0.03 0.03 0.02 0.02 0.01 0.01 0.03
0.18 0.30 0.47 0.43 0.38 0.30 0.26 0.23 0.19 0.16 0.17 0.15 0.11 0.07 0.06 0.07 0.06 0.05 0.04 0.03 0.02 0.02 0.01 0.01 0.01 0.01 0.00 0.00 0.01 0.01 0.01 0.01 0.01 0.01 0.02 0.04 0.04 0.03 0.02 0.01 0.01 0.02 0.01
0.13 0.18 0.28 0.32 0.32 0.28 0.26 0.24 0.21 0.19 0.18 0.17 0.13 0.09 0.06 0.06 0.06 0.06 0.03 0.02 0.03 0.02 0.01 0.01 0.01 0.01 0.00 0.00 0.00 0.00 0.00 0.00 0.00 0.01 0.01 0.01 0.02 0.01 0.01 0.01 0.01 0.01 0.01
0.10 0.14 0.24 0.28 0.26 0.23 0.21 0.18 0.13 0.10 0.10 0.09 0.08 0.09 0.08 0.08 0.06 0.05 0.04 0.03 0.03 0.02 0.01 0.01 0.01 0.01 0.01 0.00 0.00 0.00 0.00 0.00 0.00 0.00 0.00 0.01 0.00 0.00 0.00 0.01 0.01 0.01 0.00
0.10 0.17 0.20 0.23 0.22 0.20 0.16 0.14 0.10 0.08 0.09 0.10 0.09 0.09 0.08 0.07 0.06 0.04 0.04 0.04 0.04 0.02 0.02 0.01 0.01 0.02 0.01 0.01 0.00 0.00 0.00 0.00 0.00 0.00 0.01 0.01 0.00 0.00 0.00 0.00 0.00 0.00 0.01
0.09 0.14 0.17 0.16 0.15 0.16 0.16 0.13 0.09 0.07 0.07 0.08 0.06 0.05 0.04 0.04 0.04 0.03 0.04 0.04 0.04 0.03 0.02 0.02 0.01 0.01 0.01 0.01 0.00 0.00 0.00 0.00 0.00 0.00 0.00 0.01 0.01 0.00 0.00 0.00 0.00 0.00 0.00
MSLP
1011.68 1011.47 1011.46 1011.63 1011.93 1012.28 1012.60 1012.85 1013.01 1013.08 1013.10 1013.14 1013.23 1013.39 1013.63 1013.93 1014.24 1014.53 1014.75 1014.89 1014.95 1014.96 1014.94 1014.93 1014.95 1015.03 1015.16 1015.34 1015.54 1015.75 1015.94 1016.11 1016.25 1016.37 1016.49 1016.62 1016.78 1016.96 1017.17 1017.41 1017.65 1017.90 1018.13
1011.29 1011.19 1011.28 1011.55 1011.92 1012.33 1012.71 1013.01 1013.20 1013.31 1013.37 1013.44 1013.55 1013.73 1013.98 1014.28 1014.58 1014.85 1015.05 1015.17 1015.21 1015.21 1015.19 1015.18 1015.21 1015.29 1015.42 1015.59 1015.78 1015.98 1016.16 1016.33 1016.49 1016.63 1016.78 1016.94 1017.13 1017.33 1017.56 1017.79 1018.04 1018.28 1018.51
1010.81 1010.82 1011.01 1011.36 1011.81 1012.30 1012.74 1013.09 1013.34 1013.51 1013.62 1013.72 1013.86 1014.06 1014.31 1014.58 1014.85 1015.09 1015.25 1015.34 1015.38 1015.37 1015.36 1015.37 1015.42 1015.52 1015.66 1015.84 1016.03 1016.23 1016.42 1016.60 1016.77 1016.95 1017.13 1017.32 1017.52 1017.74 1017.97 1018.21 1018.44 1018.68 1018.91
1010.34 1010.46 1010.74 1011.17 1011.68 1012.22 1012.72 1013.13 1013.44 1013.65 1013.81 1013.96 1014.13 1014.33 1014.56 1014.81 1015.05 1015.24 1015.37 1015.44 1015.47 1015.48 1015.50 1015.54 1015.63 1015.77 1015.93 1016.13 1016.33 1016.54 1016.74 1016.94 1017.13 1017.34 1017.54 1017.76 1017.97 1018.19 1018.41 1018.63 1018.84 1019.06 1019.29
1010.03 1010.22 1010.57 1011.05 1011.61 1012.19 1012.72 1013.16 1013.50 1013.76 1013.95 1014.13 1014.31 1014.52 1014.74 1014.97 1015.17 1015.33 1015.43 1015.50 1015.54 1015.58 1015.65 1015.74 1015.89 1016.06 1016.27 1016.48 1016.70 1016.92 1017.14 1017.35 1017.57 1017.79 1018.02 1018.24 1018.46 1018.66 1018.85 1019.04 1019.22 1019.42 1019.63
1009.95 1010.21 1010.60 1011.10 1011.67 1012.25 1012.77 1013.21 1013.55 1013.82 1014.03 1014.23 1014.43 1014.64 1014.86 1015.07 1015.25 1015.39 1015.50 1015.58 1015.65 1015.74 1015.85 1016.01 1016.21 1016.43 1016.67 1016.90 1017.13 1017.36 1017.58 1017.81 1018.04 1018.28 1018.52 1018.74 1018.94 1019.12 1019.27 1019.41 1019.56 1019.72 1019.92
1010.16 1010.44 1010.85 1011.34 1011.89 1012.42 1012.90 1013.29 1013.61 1013.86 1014.08 1014.28 1014.49 1014.71 1014.93 1015.15 1015.33 1015.48 1015.60 1015.71 1015.82 1015.96 1016.14 1016.35 1016.59 1016.85 1017.10 1017.35 1017.59 1017.81 1018.03 1018.26 1018.50 1018.74 1018.98 1019.20 1019.39 1019.53 1019.65 1019.74 1019.84 1019.97 1020.15
1010.58 1010.88 1011.28 1011.75 1012.23 1012.70 1013.10 1013.43 1013.69 1013.91 1014.11 1014.31 1014.53 1014.77 1015.02 1015.25 1015.45 1015.63 1015.78 1015.92 1016.07 1016.26 1016.47 1016.72 1016.99 1017.27 1017.53 1017.78 1018.00 1018.21 1018.42 1018.64 1018.88 1019.13 1019.37 1019.58 1019.75 1019.88 1019.96 1020.02 1020.08 1020.18 1020.34
1011.11 1011.42 1011.81 1012.23 1012.65 1013.04 1013.36 1013.61 1013.81 1013.98 1014.15 1014.36 1014.59 1014.86 1015.13 1015.40 1015.64 1015.84 1016.02 1016.19 1016.38 1016.58 1016.82 1017.09 1017.37 1017.64 1017.89 1018.12 1018.32 1018.50 1018.70 1018.91 1019.14 1019.39 1019.64 1019.86 1020.03 1020.15 1020.22 1020.26 1020.30 1020.38 1020.52
1011.59 1011.92 1012.29 1012.69 1013.06 1013.37 1013.62 1013.80 1013.94 1014.07 1014.24 1014.44 1014.70 1015.00 1015.31 1015.61 1015.88 1016.11 1016.31 1016.50 1016.69 1016.90 1017.14 1017.40 1017.67 1017.92 1018.15 1018.35 1018.52 1018.68 1018.86 1019.06 1019.29 1019.54 1019.80 1020.03 1020.22 1020.36 1020.44 1020.49 1020.53 1020.60 1020.72
1011.90 1012.25 1012.64 1013.03 1013.37 1013.64 1013.84 1013.98 1014.09 1014.20 1014.36 1014.58 1014.87 1015.19 1015.54 1015.86 1016.16 1016.41 1016.61 1016.80 1016.98 1017.18 1017.40 1017.64 1017.88 1018.10 1018.31 1018.48 1018.63 1018.77 1018.93 1019.12 1019.35 1019.61 1019.88 1020.14 1020.36 1020.53 1020.65 1020.72 1020.78 1020.85 1020.98
1011.97 1012.36 1012.78 1013.19 1013.54 1013.81 1014.00 1014.13 1014.24 1014.36 1014.53 1014.77 1015.08 1015.43 1015.80 1016.15 1016.45 1016.70 1016.90 1017.07 1017.23 1017.40 1017.59 1017.80 1018.01 1018.21 1018.39 1018.55 1018.68 1018.82 1018.97 1019.15 1019.38 1019.65 1019.93 1020.22 1020.48 1020.69 1020.85 1020.96 1021.05 1021.15 1021.28
1011.78 1012.23 1012.71 1013.16 1013.55 1013.85 1014.08 1014.24 1014.38 1014.53 1014.73 1014.99 1015.32 1015.69 1016.07 1016.42 1016.72 1016.96 1017.14 1017.29 1017.43 1017.57 1017.73 1017.91 1018.11 1018.29 1018.47 1018.62 1018.76 1018.89 1019.04 1019.22 1019.44 1019.70 1020.00 1020.30 1020.58 1020.83 1021.04 1021.20 1021.34 1021.46 1021.59
1011.42 1011.93 1012.46 1012.97 1013.42 1013.79 1014.08 1014.30 1014.50 1014.69 1014.93 1015.22 1015.56 1015.93 1016.30 1016.64 1016.93 1017.16 1017.33 1017.46 1017.58 1017.70 1017.85 1018.02 1018.21 1018.40 1018.58 1018.75 1018.89 1019.03 1019.18 1019.35 1019.56 1019.81 1020.09 1020.39 1020.69 1020.96 1021.20 1021.40 1021.58 1021.73 1021.87
1010.96 1011.52 1012.11 1012.69 1013.21 1013.66 1014.03 1014.34 1014.60 1014.85 1015.12 1015.42 1015.76 1016.11 1016.46 1016.78 1017.05 1017.27 1017.44 1017.57 1017.69 1017.82 1017.97 1018.15 1018.35 1018.56 1018.76 1018.95 1019.11 1019.26 1019.41 1019.57 1019.76 1019.97 1020.22 1020.49 1020.77 1021.04 1021.30 1021.53 1021.73 1021.91 1022.07
1010.53 1011.11 1011.74 1012.37 1012.97 1013.50 1013.96 1014.34 1014.68 1014.98 1015.27 1015.57 1015.88 1016.21 1016.52 1016.81 1017.07 1017.29 1017.46 1017.62 1017.77 1017.92 1018.10 1018.30 1018.53 1018.77 1019.00 1019.21 1019.40 1019.56 1019.71 1019.85 1020.00 1020.16 1020.36 1020.57 1020.81 1021.06 1021.31 1021.54 1021.76 1021.96 1022.14
1010.19 1010.77 1011.41 1012.07 1012.72 1013.33 1013.87 1014.33 1014.73 1015.07 1015.37 1015.66 1015.93 1016.20 1016.47 1016.73 1016.98 1017.21 1017.41 1017.61 1017.81 1018.02 1018.24 1018.48 1018.73 1019.00 1019.25 1019.49 1019.69 1019.86 1020.01 1020.12 1020.23 1020.34 1020.47 1020.62 1020.80 1021.00 1021.22 1021.45 1021.67 1021.88 1022.07
1009.95 1010.51 1011.14 1011.81 1012.50 1013.16 1013.77 1014.31 1014.76 1015.13 1015.42 1015.67 1015.90 1016.11 1016.33 1016.55 1016.79 1017.04 1017.29 1017.55 1017.81 1018.08 1018.35 1018.64 1018.92 1019.21 1019.48 1019.73 1019.94 1020.12 1020.25 1020.35 1020.42 1020.48 1020.55 1020.63 1020.74 1020.88 1021.06 1021.26 1021.48 1021.70 1021.90
1009.80 1010.31 1010.91 1011.58 1012.29 1013.00 1013.67 1014.26 1014.75 1015.14 1015.43 1015.63 1015.79 1015.94 1016.10 1016.29 1016.52 1016.80 1017.10 1017.43 1017.77 1018.10 1018.43 1018.75 1019.06 1019.35 1019.63 1019.88 1020.10 1020.28 1020.41 1020.50 1020.55 1020.58 1020.59 1020.61 1020.66 1020.74 1020.87 1021.04 1021.24 1021.45 1021.66
1009.68 1010.15 1010.71 1011.36 1012.08 1012.82 1013.54 1014.19 1014.72 1015.12 1015.39 1015.55 1015.65 1015.73 1015.83 1015.99 1016.22 1016.52 1016.88 1017.27 1017.68 1018.07 1018.45 1018.80 1019.12 1019.41 1019.69 1019.94 1020.16 1020.34 1020.49 1020.58 1020.63 1020.63 1020.62 1020.60 1020.60 1020.63 1020.71 1020.84 1021.01 1021.20 1021.41
1009.57 1009.98 1010.50 1011.14 1011.86 1012.63 1013.39 1014.08 1014.64 1015.06 1015.31 1015.44 1015.49 1015.51 1015.56 1015.69 1015.91 1016.23 1016.63 1017.09 1017.55 1018.00 1018.41 1018.78 1019.11 1019.40 1019.66 1019.90 1020.13 1020.33 1020.49 1020.61 1020.67 1020.69 1020.67 1020.63 1020.60 1020.59 1020.62 1020.70 1020.83 1020.99 1021.17
1009.43 1009.80 1010.28 1010.89 1011.61 1012.40 1013.20 1013.93 1014.53 1014.96 1015.22 1015.32 1015.33 1015.31 1015.32 1015.42 1015.63 1015.97 1016.41 1016.90 1017.41 1017.90 1018.34 1018.72 1019.04 1019.32 1019.58 1019.82 1020.05 1020.27 1020.47 1020.63 1020.73 1020.77 1020.77 1020.72 1020.67 1020.63 1020.61 1020.64 1020.71 1020.82 1020.95
1009.27 1009.61 1010.06 1010.65 1011.36 1012.16 1012.97 1013.73 1014.36 1014.82 1015.09 1015.19 1015.18 1015.14 1015.13 1015.21 1015.42 1015.77 1016.22 1016.74 1017.28 1017.79 1018.24 1018.63 1018.95 1019.22 1019.47 1019.72 1019.97 1020.22 1020.46 1020.66 1020.81 1020.89 1020.91 1020.88 1020.81 1020.73 1020.67 1020.64 1020.64 1020.69 1020.76
1009.15 1009.46 1009.87 1010.42 1011.11 1011.89 1012.71 1013.48 1014.14 1014.62 1014.92 1015.04 1015.04 1015.00 1014.99 1015.08 1015.29 1015.63 1016.10 1016.63 1017.17 1017.69 1018.14 1018.53 1018.85 1019.12 1019.38 1019.64 1019.91 1020.19 1020.47 1020.72 1020.91 1021.03 1021.08 1021.05 1020.97 1020.87 1020.76 1020.66 1020.59 1020.55 1020.54
1009.10 1009.38 1009.75 1010.25 1010.88 1011.62 1012.41 1013.18 1013.85 1014.36 1014.69 1014.85 1014.89 1014.88 1014.90 1015.00 1015.22 1015.56 1016.02 1016.55 1017.09 1017.60 1018.05 1018.43 1018.75 1019.02 1019.29 1019.57 1019.86 1020.18 1020.49 1020.77 1021.00 1021.15 1021.21 1021.19 1021.10 1020.97 1020.81 1020.65 1020.51 1020.39 1020.30
1009.15 1009.40 1009.71 1010.14 1010.69 1011.36 1012.09 1012.82 1013.48 1014.01 1014.38 1014.59 1014.70 1014.75 1014.81 1014.95 1015.19 1015.54 1015.99 1016.50 1017.02 1017.51 1017.95 1018.33 1018.65 1018.93 1019.21 1019.50 1019.82 1020.15 1020.48 1020.78 1021.03 1021.19 1021.26 1021.24 1021.14 1020.98 1020.79 1020.58 1020.38 1020.20 1020.03
Thickness
5779 5780 5777 5775 5773 5772 5771 5770 5770 5769 5769 5768 5767 5766 5765 5764 5764 5763 5762 5761 5761 5760 5759 5758 5757 5756 5755 5754 5753 5751 5750 5748 5747 5745 5744 5743 5742 5741 5740 5740 5739 5738 5737
5786 5782 5778 5775 5773 5771 5770 5768 5768 5767 5767 5766 5765 5764 5764 5763 5762 5761 5760 5760 5759 5758 5757 5756 5755 5753 5753 5752 5750 5749 5747 5746 5745 5743 5742 5741 5740 5739 5738 5737 5737 5736 5735
5786 5782 5778 5775 5773 5771 5769 5767 5766 5765 5765 5764 5763 5762 5761 5761 5760 5759 5758 5758 5757 5756 5755 5754 5753 5751 5750 5749 5748 5746 5745 5743 5742 5741 5740 5739 5738 5737 5736 5735 5735 5734 5734
5785 5781 5778 5775 5772 5770 5768 5766 5765 5764 5763 5762 5761 5760 5759 5759 5758 5757 5756 5756 5755 5754 5753 5752 5751 5749 5748 5747 5745 5744 5742 5741 5740 5739 5737 5737 5736 5735 5734 5733 5733 5732 5732
5783 5779 5776 5774 5771 5769 5767 5765 5763 5762 5761 5760 5759 5758 5758 5757 5756 5755 5755 5754 5753 5752 5751 5750 5749 5747 5746 5745 5743 5742 5740 5739 5738 5736 5735 5735 5734 5733 5733 5732 5731 5730 5729
5780 5777 5774 5771 5769 5766 5764 5763 5761 5760 5759 5758 5757 5757 5756 5755 5754 5753 5753 5752 5750 5749 5749 5748 5746 5745 5744 5743 5741 5740 5739 5737 5735 5734 5733 5732 5732 5731 5731 5730 5729 5728 5727
5777 5774 5771 5768 5766 5764 5762 5760 5759 5758 5758 5757 5756 5755 5754 5753 5752 5752 5750 5749 5748 5747 5746 5745 5744 5743 5742 5741 5739 5738 5736 5735 5734 5732 5731 5730 5730 5729 5729 5728 5727 5726 5725
5776 5773 5769 5766 5763 5762 5760 5758 5757 5756 5756 5755 5754 5753 5752 5751 5750 5749 5748 5747 5746 5745 5744 5743 5742 5741 5740 5739 5738 5736 5735 5733 5731 5730 5729 5728 5728 5727 5727 5726 5725 5724 5724
5772 5769 5766 5763 5761 5759 5758 5756 5755 5754 5754 5753 5752 5751 5750 5749 5748 5747 5745 5744 5744 5743 5742 5741 5740 5739 5738 5737 5736 5734 5733 5731 5729 5728 5727 5726 5726 5725 5725 5724 5723 5722 5722
5767 5765 5762 5760 5757 5756 5755 5754 5752 5752 5751 5751 5750 5749 5748 5747 5746 5745 5743 5743 5742 5741 5740 5739 5738 5737 5736 5735 5734 5733 5731 5729 5727 5726 5725 5724 5724 5723 5723 5722 5721 5721 5720
5761 5760 5758 5756 5754 5753 5751 5751 5750 5749 5749 5749 5748 5747 5746 5745 5744 5743 5742 5741 5740 5739 5738 5737 5736 5735 5734 5733 5733 5731 5729 5727 5725 5724 5723 5722 5722 5722 5721 5720 5720 5719 5718
5757 5755 5754 5753 5752 5750 5749 5748 5747 5747 5747 5746 5746 5745 5744 5743 5742 5741 5740 5740 5739 5738 5737 5736 5734 5733 5732 5731 5730 5729 5727 5726 5724 5723 5722 5721 5721 5720 5720 5719 5718 5717 5716
5757 5753 5752 5750 5749 5748 5747 5745 5744 5744 5744 5744 5743 5743 5742 5741 5740 5739 5739 5738 5737 5736 5735 5734 5732 5731 5730 5729 5728 5727 5726 5724 5723 5722 5721 5720 5720 5719 5718 5717 5716 5716 5715
5754 5752 5750 5749 5747 5745 5744 5743 5742 5741 5741 5741 5741 5740 5740 5739 5738 5738 5737 5736 5735 5734 5733 5732 5730 5730 5729 5728 5727 5726 5725 5723 5722 5721 5720 5719 5719 5718 5717 5716 5715 5714 5713
5752 5749 5747 5746 5744 5743 5742 5741 5740 5739 5739 5739 5738 5738 5738 5738 5737 5736 5736 5735 5734 5733 5732 5730 5729 5728 5727 5726 5726 5725 5723 5722 5721 5720 5719 5719 5718 5717 5716 5715 5714 5713 5712
5752 5748 5746 5743 5741 5740 5739 5738 5738 5737 5737 5736 5737 5737 5737 5737 5736 5736 5734 5733 5733 5732 5731 5730 5729 5728 5726 5725 5725 5724 5722 5721 5721 5719 5719 5718 5717 5716 5715 5714 5713 5712 5711
5751 5747 5744 5741 5739 5737 5736 5735 5735 5735 5735 5735 5735 5735 5735 5735 5735 5735 5734 5733 5732 5731 5730 5729 5728 5727 5725 5724 5724 5723 5722 5721 5720 5719 5718 5717 5717 5716 5715 5714 5712 5711 5710
5750 5745 5743 5741 5737 5735 5734 5734 5734 5734 5734 5734 5734 5734 5734 5734 5735 5734 5733 5732 5732 5731 5730 5729 5727 5725 5724 5723 5722 5722 5721 5720 5719 5719 5718 5717 5717 5716 5715 5713 5712 5711 5710
5751 5746 5741 5740 5736 5733 5732 5731 5731 5732 5732 5732 5733 5733 5733 5733 5734 5734 5733 5732 5731 5730 5729 5729 5726 5725 5723 5722 5721 5721 5720 5720 5719 5719 5718 5717 5717 5716 5715 5714 5713 5711 5710
5751 5746 5741 5737 5734 5731 5729 5728 5728 5729 5729 5730 5732 5732 5732 5732 5733 5733 5732 5731 5730 5729 5728 5728 5726 5724 5723 5722 5721 5719 5719 5719 5719 5718 5718 5717 5717 5716 5715 5714 5713 5712 5711
5749 5744 5740 5735 5732 5729 5727 5726 5725 5725 5727 5728 5730 5731 5732 5732 5732 5732 5731 5730 5730 5729 5728 5727 5725 5723 5721 5721 5718 5716 5716 5718 5718 5718 5718 5717 5717 5716 5715 5714 5714 5713 5711
5748 5743 5738 5734 5731 5730 5729 5728 5727 5726 5725 5727 5729 5730 5731 5731 5731 5731 5731 5730 5729 5727 5726 5726 5725 5722 5721 5720 5718 5713 5710 5712 5716 5719 5718 5718 5718 5717 5716 5716 5714 5714 5712
5749 5745 5741 5737 5733 5731 5728 5727 5725 5723 5722 5722 5725 5727 5729 5730 5730 5730 5730 5729 5728 5727 5726 5725 5725 5723 5719 5719 5719 5716 5709 5707 5711 5716 5718 5719 5719 5718 5717 5716 5716 5715 5714
5751 5747 5742 5738 5735 5732 5729 5727 5725 5723 5721 5723 5725 5726 5727 5728 5728 5729 5728 5728 5727 5727 5726 5725 5725 5724 5722 5718 5717 5718 5717 5715 5711 5710 5715 5717 5718 5718 5718 5718 5717 5716 5715
5753 5748 5744 5739 5736 5733 5730 5728 5726 5724 5724 5724 5724 5724 5725 5726 5726 5726 5727 5727 5726 5726 5725 5724 5724 5724 5723 5720 5718 5717 5715 5714 5714 5711 5709 5712 5716 5718 5718 5717 5717 5716 5715
5752 5747 5743 5739 5735 5733 5730 5728 5727 5725 5724 5722 5722 5721 5722 5723 5724 5724 5725 5725 5725 5724 5724 5723 5723 5723 5722 5721 5720 5719 5717 5714 5712 5711 5708 5708 5710 5713 5715 5716 5716 5716 5715